Météo par heure à Julinek

Ce jour, 20 Juin, Dimanche

Heure Température Précipitation Vent Pression Humidité
00:00 +21°C° 0 mm 3 m/s 753 mmHg 80%
01:00 +20°C° 0 mm 2 m/s 753 mmHg 83%
02:00 +20°C° 0 mm 3 m/s 752 mmHg 85%
03:00 +19°C° 0 mm 3 m/s 752 mmHg 87%
04:00 +19°C° 0 mm 3 m/s 752 mmHg 90%
05:00 +20°C° 0 mm 3 m/s 752 mmHg 83%
06:00 +22°C° 0 mm 4 m/s 752 mmHg 76%
07:00 +23°C° 0 mm 4 m/s 752 mmHg 69%
08:00 +26°C° 0 mm 4 m/s 752 mmHg 63%
09:00 +27°C° 0 mm 4 m/s 752 mmHg 56%
10:00 +29°C° 0 mm 4 m/s 752 mmHg 50%
11:00 +29°C° 0 mm 4 m/s 752 mmHg 48%
12:00 +30°C° 0 mm 5 m/s 751 mmHg 46%
13:00 +32°C° 0 mm 5 m/s 751 mmHg 44%
14:00 +32°C° 0 mm 5 m/s 751 mmHg 44%
15:00 +32°C° 0 mm 4 m/s 750 mmHg 45%
16:00 +32°C° 0 mm 4 m/s 750 mmHg 46%
17:00 +30°C° 0 mm 4 m/s 750 mmHg 53%
18:00 +28°C° 0 mm 4 m/s 749 mmHg 59%
19:00 +27°C° 0 mm 4 m/s 749 mmHg 66%
20:00 +26°C° 0 mm 3 m/s 749 mmHg 70%
21:00 +25°C° 0 mm 3 m/s 750 mmHg 74%
22:00 +22°C° 0 mm 3 m/s 750 mmHg 78%
23:00 +22°C° 0 mm 3 m/s 750 mmHg 81%

Demain, 21 Juin, Lundi

Heure Température Précipitation Vent Pression Humidité
00:00 +21°C° 0 mm 3 m/s 749 mmHg 83%
01:00 +20°C° 0 mm 3 m/s 749 mmHg 85%
02:00 +20°C° 0 mm 3 m/s 749 mmHg 86%
03:00 +20°C° 0 mm 3 m/s 749 mmHg 88%
04:00 +20°C° 0 mm 3 m/s 748 mmHg 89%
05:00 +21°C° 0 mm 4 m/s 748 mmHg 83%
06:00 +23°C° 0 mm 5 m/s 748 mmHg 77%
07:00 +24°C° 0 mm 6 m/s 748 mmHg 70%
08:00 +26°C° 0 mm 6 m/s 749 mmHg 65%
09:00 +28°C° 0 mm 6 m/s 749 mmHg 59%
10:00 +29°C° 0 mm 6 m/s 749 mmHg 54%
11:00 +30°C° 0 mm 5 m/s 748 mmHg 51%
12:00 +30°C° 0 mm 5 m/s 748 mmHg 48%
13:00 +32°C° 0 mm 5 m/s 748 mmHg 45%
14:00 +32°C° 0 mm 4 m/s 748 mmHg 46%
15:00 +32°C° 0 mm 4 m/s 747 mmHg 47%
16:00 +30°C° 0 mm 4 m/s 747 mmHg 49%
17:00 +29°C° 0 mm 4 m/s 747 mmHg 55%
18:00 +28°C° 0 mm 3 m/s 747 mmHg 61%
19:00 +26°C° 0 mm 3 m/s 747 mmHg 68%
20:00 +26°C° 0 mm 3 m/s 747 mmHg 70%
21:00 +25°C° 0 mm 3 m/s 747 mmHg 73%
22:00 +24°C° 0 mm 3 m/s 747 mmHg 76%
23:00 +22°C° 0 mm 3 m/s 747 mmHg 78%

Après-demain, 22 Juin, Mardi

Heure Température Précipitation Vent Pression Humidité
00:00 +23°C° 0 mm 2 m/s 747 mmHg 80%
01:00 +23°C° 0 mm 2 m/s 747 mmHg 82%
02:00 +21°C° 0 mm 2 m/s 747 mmHg 83%
03:00 +21°C° 0 mm 2 m/s 747 mmHg 85%
04:00 +21°C° 0 mm 2 m/s 747 mmHg 86%
05:00 +23°C° 0 mm 2 m/s 747 mmHg 81%
06:00 +25°C° 0 mm 2 m/s 748 mmHg 76%
07:00 +26°C° 0 mm 2 m/s 748 mmHg 71%
08:00 +27°C° 0 mm 2 m/s 748 mmHg 65%
09:00 +29°C° 0 mm 2 m/s 748 mmHg 60%
10:00 +30°C° 0 mm 2 m/s 748 mmHg 55%
11:00 +31°C° 0.2 mm 2 m/s 748 mmHg 52%
12:00 +32°C° 0.2 mm 2 m/s 748 mmHg 50%
13:00 +32°C° 0.2 mm 2 m/s 748 mmHg 47%
14:00 +31°C° 0.3 mm 2 m/s 748 mmHg 52%
15:00 +30°C° 0.3 mm 3 m/s 748 mmHg 57%
16:00 +29°C° 0.3 mm 3 m/s 748 mmHg 62%
17:00 +27°C° 3.7 mm 3 m/s 748 mmHg 72%
18:00 +25°C° 3.7 mm 3 m/s 749 mmHg 82%
19:00 +23°C° 3.7 mm 2 m/s 750 mmHg 92%
20:00 +21°C° 0.4 mm 2 m/s 750 mmHg 91%
21:00 +21°C° 0.4 mm 2 m/s 750 mmHg 91%
22:00 +22°C° 0.4 mm 1 m/s 750 mmHg 91%
23:00 +22°C° 0 mm 1 m/s 750 mmHg 91%

23 Juin, Mercredi

Heure Température Précipitation Vent Pression Humidité
00:00 +21°C° 0 mm 1 m/s 750 mmHg 92%
01:00 +21°C° 0 mm 1 m/s 751 mmHg 93%
02:00 +21°C° 0 mm 1 m/s 751 mmHg 94%
03:00 +21°C° 0 mm 1 m/s 751 mmHg 95%
04:00 +20°C° 0 mm 1 m/s 751 mmHg 95%
05:00 +22°C° 0 mm 1 m/s 751 mmHg 91%
06:00 +23°C° 0 mm 1 m/s 752 mmHg 88%
07:00 +24°C° 0 mm 1 m/s 752 mmHg 84%
08:00 +25°C° 0 mm 1 m/s 752 mmHg 79%
09:00 +26°C° 0 mm 1 m/s 752 mmHg 74%
10:00 +27°C° 0 mm 1 m/s 752 mmHg 69%
11:00 +28°C° 0 mm 1 m/s 752 mmHg 64%
12:00 +29°C° 0 mm 1 m/s 752 mmHg 59%
13:00 +31°C° 0 mm 1 m/s 752 mmHg 54%
14:00 +31°C° 0 mm 1 m/s 752 mmHg 54%
15:00 +31°C° 0 mm 1 m/s 752 mmHg 54%
16:00 +31°C° 0 mm 1 m/s 752 mmHg 53%
17:00 +30°C° 0.1 mm 2 m/s 752 mmHg 60%
18:00 +28°C° 0.1 mm 2 m/s 752 mmHg 67%
19:00 +27°C° 0.1 mm 2 m/s 752 mmHg 73%
20:00 +26°C° 0.1 mm 2 m/s 753 mmHg 77%
21:00 +25°C° 0.1 mm 2 m/s 753 mmHg 81%
22:00 +24°C° 0.1 mm 2 m/s 753 mmHg 84%
23:00 +23°C° 0.4 mm 2 m/s 753 mmHg 87%

24 Juin, Jeudi

Heure Température Précipitation Vent Pression Humidité
00:00 +23°C° 0.4 mm 2 m/s 753 mmHg 90%
01:00 +21°C° 0.4 mm 2 m/s 753 mmHg 93%
02:00 +21°C° 0.2 mm 2 m/s 753 mmHg 94%
03:00 +21°C° 0.2 mm 2 m/s 753 mmHg 94%
04:00 +20°C° 0.2 mm 2 m/s 753 mmHg 95%
05:00 +23°C° 0.1 mm 2 m/s 753 mmHg 90%
06:00 +24°C° 0.1 mm 2 m/s 753 mmHg 86%
07:00 +25°C° 0.1 mm 2 m/s 753 mmHg 81%
08:00 +27°C° 0.1 mm 2 m/s 753 mmHg 75%
09:00 +28°C° 0.1 mm 2 m/s 753 mmHg 69%
10:00 +30°C° 0.1 mm 2 m/s 752 mmHg 62%
11:00 +31°C° 0.3 mm 2 m/s 752 mmHg 58%
12:00 +32°C° 0.3 mm 2 m/s 752 mmHg 54%
13:00 +34°C° 0.3 mm 2 m/s 752 mmHg 50%
14:00 +34°C° 0 mm 2 m/s 751 mmHg 49%
15:00 +33°C° 0 mm 1 m/s 751 mmHg 49%
16:00 +33°C° 0 mm 1 m/s 751 mmHg 49%
17:00 +31°C° 0.1 mm 2 m/s 750 mmHg 56%
18:00 +30°C° 0.1 mm 2 m/s 750 mmHg 63%
19:00 +29°C° 0.1 mm 3 m/s 749 mmHg 71%
20:00 +26°C° 6.2 mm 3 m/s 750 mmHg 78%
21:00 +22°C° 6.2 mm 3 m/s 750 mmHg 84%
22:00 +19°C° 6.2 mm 3 m/s 750 mmHg 91%
23:00 +19°C° 0.1 mm 2 m/s 750 mmHg 92%

25 Juin, Vendredi

Heure Température Précipitation Vent Pression Humidité
00:00 +19°C° 0.1 mm 2 m/s 750 mmHg 92%
01:00 +20°C° 0.1 mm 1 m/s 749 mmHg 92%
02:00 +20°C° 0 mm 1 m/s 749 mmHg 92%
03:00 +20°C° 0 mm 1 m/s 749 mmHg 92%
04:00 +20°C° 0 mm 1 m/s 749 mmHg 91%
05:00 +21°C° 0 mm 1 m/s 749 mmHg 87%
06:00 +20°C° 0 mm 0 m/s 749 mmHg 83%
07:00 +22°C° 0 mm 0 m/s 749 mmHg 79%
08:00 +25°C° 0 mm 1 m/s 749 mmHg 74%
09:00 +27°C° 0 mm 1 m/s 749 mmHg 69%
10:00 +28°C° 0 mm 2 m/s 749 mmHg 64%
11:00 +28°C° 0.4 mm 3 m/s 749 mmHg 66%
12:00 +28°C° 0.4 mm 4 m/s 749 mmHg 69%
13:00 +27°C° 0.4 mm 5 m/s 749 mmHg 71%
14:00 +27°C° 0.1 mm 5 m/s 749 mmHg 68%
15:00 +27°C° 0.1 mm 6 m/s 749 mmHg 65%
16:00 +27°C° 0.1 mm 6 m/s 748 mmHg 61%
17:00 +24°C° 0 mm 6 m/s 749 mmHg 68%
18:00 +23°C° 0 mm 6 m/s 749 mmHg 74%
19:00 +21°C° 0 mm 5 m/s 749 mmHg 81%
20:00 +20°C° 0 mm 5 m/s 749 mmHg 83%
21:00 +20°C° 0 mm 5 m/s 749 mmHg 86%
22:00 +19°C° 0 mm 5 m/s 749 mmHg 89%
23:00 +19°C° 0 mm 5 m/s 749 mmHg 89%
Voir plus

Nous avons besoin de votre consentement

Meteoprog et ses fournisseurs de services peuvent stocker et accéder à des données personnelles telles que des cookies, des identifiants d'appareils ou d'autres technologies similaires sur votre appareil et traiter ces données pour personnaliser le contenu et les publicités, ainsi que pour fournir des fonctionnalités de médias sociaux et analyser le trafic.

  • Stocker et/ou accéder à des informations sur votre appareil

    Des cookies, des identifiants d'appareils ou d'autres informations peuvent être stockés ou accessibles sur votre appareil aux fins indiquées ci-dessus.

  • Annonces et contenus personnalisés, mesure des annonces et des contenus, connaissance de l'audience et développement de produits

    Les annonces et le contenu peuvent être personnalisés en fonction d'un profil. D'autres données peuvent être ajoutées pour mieux personnaliser les annonces et le contenu. Les performances des publicités et du contenu peuvent être mesurées. Il est possible d'obtenir des informations sur le public qui a vu les publicités et le contenu. Ces données peuvent être utilisées pour développer ou améliorer l'expérience de l'utilisateur, les systèmes et les logiciels.

En cliquant sur "J'accepte", vous autorisez l'utilisation de cookies, des identifiants d'appareils, des balises web ou d'autres technologies similaires. Vos paramètres peuvent être modifiés dans le navigateur de votre appareil.

Dans certains cas, des intérêts légitimes peuvent être invoqués plutôt qu'un consentement. Vous pouvez en savoir plus à ce sujet dans notre Politique de confidentialité et de cookies.